Time,TemperatureF,DewpointF,PressureIn,WindDirection,WindDirectionDegrees,WindSpeedMPH,WindSpeedGustMPH,Humidity,HourlyPrecipIn,Conditions,Clouds,dailyrainin,SoftwareType,DateUTC
2013-01-08 00:07:00,32.2,25.0,30.54,SSE,165,5.0,12.0,76,0.00,,,0.00,weatherlink.com 1.10,2013-01-08 05:07:00,
2013-01-08 00:20:00,32.3,26.0,30.53,South,177,8.0,12.0,77,0.00,,,0.00,weatherlink.com 1.10,2013-01-08 05:20:00,
2013-01-08 00:36:00,32.1,26.0,30.53,SSE,158,7.0,12.0,77,0.00,,,0.00,weatherlink.com 1.10,2013-01-08 05:36:00,
2013-01-08 00:50:00,31.7,25.0,30.52,South,175,5.0,13.0,77,0.00,,,0.00,weatherlink.com 1.10,2013-01-08 05:50:00,
2013-01-08 01:06:00,31.6,25.0,30.51,South,173,4.0,13.0,78,0.00,,,0.00,weatherlink.com 1.10,2013-01-08 06:06:00,
2013-01-08 01:21:00,32.1,26.0,30.51,South,169,13.0,17.0,78,0.00,,,0.00,weatherlink.com 1.10,2013-01-08 06:21:00,
2013-01-08 01:36:00,32.4,26.0,30.51,South,178,5.0,13.0,78,0.00,,,0.00,weatherlink.com 1.10,2013-01-08 06:36:00,
2013-01-08 01:51:00,32.2,26.0,30.51,SSE,156,6.0,12.0,79,0.00,,,0.00,weatherlink.com 1.10,2013-01-08 06:51:00,
2013-01-08 02:06:00,32.3,26.0,30.51,South,179,15.0,15.0,79,0.00,,,0.00,weatherlink.com 1.10,2013-01-08 07:06:00,
2013-01-08 02:21:00,32.4,26.0,30.52,South,181,7.0,12.0,78,0.00,,,0.00,weatherlink.com 1.10,2013-01-08 07:21:00,
2013-01-08 02:36:00,32.3,26.0,30.52,SSW,205,7.0,13.0,79,0.00,,,0.00,weatherlink.com 1.10,2013-01-08 07:36:00,
2013-01-08 02:51:00,32.1,27.0,30.52,South,174,5.0,12.0,80,0.00,,,0.00,weatherlink.com 1.10,2013-01-08 07:51:00,
2013-01-08 03:06:00,32.1,27.0,30.52,South,185,2.0,10.0,80,0.00,,,0.00,weatherlink.com 1.10,2013-01-08 08:06:00,
2013-01-08 03:21:00,31.8,26.0,30.51,SSW,200,5.0,9.0,79,0.00,,,0.00,weatherlink.com 1.10,2013-01-08 08:21:00,
2013-01-08 03:38:00,32.2,26.0,30.51,SSE,157,6.0,10.0,79,0.00,,,0.00,weatherlink.com 1.10,2013-01-08 08:38:00,
2013-01-08 03:51:00,32.2,26.0,30.51,SE,140,4.0,7.0,78,0.00,,,0.00,weatherlink.com 1.10,2013-01-08 08:51:00,
2013-01-08 04:06:00,32.3,26.0,30.51,SE,129,4.0,7.0,77,0.00,,,0.00,weatherlink.com 1.10,2013-01-08 09:06:00,
2013-01-08 04:21:00,32.1,25.0,30.50,SE,139,6.0,7.0,76,0.00,,,0.00,weatherlink.com 1.10,2013-01-08 09:21:00,
2013-01-08 04:36:00,32.1,26.0,30.50,ESE,123,4.0,8.0,77,0.00,,,0.00,weatherlink.com 1.10,2013-01-08 09:36:00,
2013-01-08 04:51:00,33.2,24.0,30.49,SE,132,7.0,14.0,69,0.00,,,0.00,weatherlink.com 1.10,2013-01-08 09:51:00,
2013-01-08 05:06:00,33.0,24.0,30.49,SSE,160,6.0,8.0,69,0.00,,,0.00,weatherlink.com 1.10,2013-01-08 10:06:00,
2013-01-08 05:21:00,32.2,24.0,30.50,SE,127,5.0,7.0,72,0.00,,,0.00,weatherlink.com 1.10,2013-01-08 10:21:00,
2013-01-08 05:36:00,31.9,25.0,30.51,SE,128,4.0,7.0,74,0.00,,,0.00,weatherlink.com 1.10,2013-01-08 10:36:00,
2013-01-08 05:51:00,31.7,25.0,30.52,SE,146,3.0,7.0,75,0.00,,,0.00,weatherlink.com 1.10,2013-01-08 10:51:00,
2013-01-08 06:06:00,31.7,25.0,30.51,ESE,122,2.0,6.0,76,0.00,,,0.00,weatherlink.com 1.10,2013-01-08 11:06:00,
2013-01-08 06:21:00,31.5,25.0,30.52,SE,128,2.0,4.0,78,0.00,,,0.00,weatherlink.com 1.10,2013-01-08 11:21:00,
2013-01-08 06:36:00,31.2,26.0,30.52,SSE,157,2.0,6.0,80,0.00,,,0.00,weatherlink.com 1.10,2013-01-08 11:36:00,
2013-01-08 06:51:00,30.9,26.0,30.52,SE,125,4.0,6.0,82,0.00,,,0.00,weatherlink.com 1.10,2013-01-08 11:51:00,
2013-01-08 07:06:00,31.2,26.0,30.52,SSE,155,2.0,11.0,82,0.00,,,0.00,weatherlink.com 1.10,2013-01-08 12:06:00,
2013-01-08 07:21:00,31.0,26.0,30.52,SSE,165,3.0,7.0,83,0.00,,,0.00,weatherlink.com 1.10,2013-01-08 12:21:00,
2013-01-08 07:36:00,31.2,27.0,30.53,ESE,108,5.0,9.0,83,0.00,,,0.00,weatherlink.com 1.10,2013-01-08 12:36:00,
2013-01-08 07:51:00,31.8,27.0,30.52,South,189,7.0,10.0,81,0.00,,,0.00,weatherlink.com 1.10,2013-01-08 12:51:00,
2013-01-08 08:06:00,31.9,27.0,30.53,South,176,3.0,10.0,83,0.00,,,0.00,weatherlink.com 1.10,2013-01-08 13:06:00,
2013-01-08 08:21:00,32.3,28.0,30.54,South,178,4.0,9.0,84,0.00,,,0.00,weatherlink.com 1.10,2013-01-08 13:21:00,
2013-01-08 08:36:00,33.0,28.0,30.55,South,185,6.0,10.0,83,0.00,,,0.00,weatherlink.com 1.10,2013-01-08 13:36:00,
2013-01-08 08:51:00,34.3,29.0,30.56,SSE,161,4.0,10.0,81,0.00,,,0.00,weatherlink.com 1.10,2013-01-08 13:51:00,
2013-01-08 09:06:00,34.5,29.0,30.56,SSE,153,4.0,11.0,80,0.00,,,0.00,weatherlink.com 1.10,2013-01-08 14:06:00,
2013-01-08 09:21:00,34.8,30.0,30.57,SE,146,5.0,8.0,81,0.00,,,0.00,weatherlink.com 1.10,2013-01-08 14:21:00,
2013-01-08 09:36:00,35.9,30.0,30.57,SE,125,4.0,8.0,78,0.00,,,0.00,weatherlink.com 1.10,2013-01-08 14:36:00,
2013-01-08 09:51:00,36.2,30.0,30.57,SE,136,1.0,7.0,78,0.00,,,0.00,weatherlink.com 1.10,2013-01-08 14:51:00,
2013-01-08 10:06:00,37.4,29.0,30.57,SE,146,5.0,7.0,72,0.00,,,0.00,weatherlink.com 1.10,2013-01-08 15:06:00,
2013-01-08 10:37:00,39.2,30.0,30.57,South,179,2.0,7.0,70,0.00,,,0.00,weatherlink.com 1.10,2013-01-08 15:37:00,
2013-01-08 10:52:00,39.3,29.0,30.57,SSE,150,4.0,8.0,68,0.00,,,0.00,weatherlink.com 1.10,2013-01-08 15:52:00,
2013-01-08 11:07:00,39.2,29.0,30.57,SE,136,4.0,7.0,67,0.00,,,0.00,weatherlink.com 1.10,2013-01-08 16:07:00,
2013-01-08 11:22:00,39.9,30.0,30.57,SSW,196,4.0,7.0,68,0.00,,,0.00,weatherlink.com 1.10,2013-01-08 16:22:00,
2013-01-08 11:37:00,40.6,30.0,30.56,SE,126,2.0,5.0,66,0.00,,,0.00,weatherlink.com 1.10,2013-01-08 16:37:00,
2013-01-08 11:52:00,41.3,29.0,30.55,SSE,155,4.0,9.0,63,0.00,,,0.00,weatherlink.com 1.10,2013-01-08 16:52:00,
2013-01-08 12:07:00,41.8,31.0,30.55,SE,138,4.0,11.0,65,0.00,,,0.00,weatherlink.com 1.10,2013-01-08 17:07:00,
2013-01-08 12:37:00,42.5,31.0,30.54,SE,133,4.0,8.0,64,0.00,,,0.00,weatherlink.com 1.10,2013-01-08 17:37:00,
2013-01-08 12:52:00,43.3,31.0,30.54,SE,146,3.0,8.0,63,0.00,,,0.00,weatherlink.com 1.10,2013-01-08 17:52:00,
2013-01-08 13:07:00,44.0,32.0,30.53,SE,140,2.0,9.0,64,0.00,,,0.00,weatherlink.com 1.10,2013-01-08 18:07:00,
2013-01-08 13:22:00,44.6,32.0,30.53,SSW,198,3.0,8.0,62,0.00,,,0.00,weatherlink.com 1.10,2013-01-08 18:22:00,
2013-01-08 13:37:00,44.5,32.0,30.53,South,171,1.0,9.0,61,0.00,,,0.00,weatherlink.com 1.10,2013-01-08 18:37:00,
2013-01-08 13:52:00,45.0,32.0,30.52,SSE,167,3.0,9.0,60,0.00,,,0.00,weatherlink.com 1.10,2013-01-08 18:52:00,
2013-01-08 14:07:00,43.8,31.0,30.52,SSE,157,2.0,7.0,62,0.00,,,0.00,weatherlink.com 1.10,2013-01-08 19:07:00,
2013-01-08 14:22:00,45.4,32.0,30.52,SSE,166,3.0,7.0,61,0.00,,,0.00,weatherlink.com 1.10,2013-01-08 19:22:00,
2013-01-08 14:37:00,45.9,32.0,30.51,SE,142,4.0,8.0,59,0.00,,,0.00,weatherlink.com 1.10,2013-01-08 19:37:00,
2013-01-08 14:52:00,45.9,32.0,30.51,SE,142,6.0,8.0,59,0.00,,,0.00,weatherlink.com 1.10,2013-01-08 19:52:00,
2013-01-08 15:07:00,45.9,33.0,30.51,SSE,147,2.0,8.0,60,0.00,,,0.00,weatherlink.com 1.10,2013-01-08 20:07:00,
2013-01-08 15:22:00,46.2,32.0,30.52,SSE,153,4.0,6.0,59,0.00,,,0.00,weatherlink.com 1.10,2013-01-08 20:22:00,
2013-01-08 15:37:00,46.1,32.0,30.52,SE,132,5.0,6.0,59,0.00,,,0.00,weatherlink.com 1.10,2013-01-08 20:37:00,
2013-01-08 15:52:00,46.6,33.0,30.52,ESE,115,5.0,7.0,59,0.00,,,0.00,weatherlink.com 1.10,2013-01-08 20:52:00,
2013-01-08 16:07:00,46.3,33.0,30.52,SSE,148,3.0,7.0,60,0.00,,,0.00,weatherlink.com 1.10,2013-01-08 21:07:00,
2013-01-08 16:22:00,45.4,32.0,30.53,SSE,150,2.0,7.0,61,0.00,,,0.00,weatherlink.com 1.10,2013-01-08 21:22:00,
2013-01-08 16:37:00,44.7,33.0,30.53,South,180,1.0,7.0,63,0.00,,,0.00,weatherlink.com 1.10,2013-01-08 21:37:00,
2013-01-08 16:52:00,43.7,33.0,30.52,South,188,1.0,5.0,65,0.00,,,0.00,weatherlink.com 1.10,2013-01-08 21:52:00,
2013-01-08 17:07:00,42.1,32.0,30.52,South,183,1.0,5.0,68,0.00,,,0.00,weatherlink.com 1.10,2013-01-08 22:07:00,
2013-01-08 17:23:00,40.9,32.0,30.53,South,189,4.0,4.0,70,0.00,,,0.00,weatherlink.com 1.10,2013-01-08 22:23:00,
2013-01-08 17:38:00,40.0,32.0,30.53,South,175,2.0,6.0,72,0.00,,,0.00,weatherlink.com 1.10,2013-01-08 22:38:00,
2013-01-08 17:53:00,39.7,32.0,30.53,SSE,161,1.0,4.0,73,0.00,,,0.00,weatherlink.com 1.10,2013-01-08 22:53:00,
2013-01-08 18:08:00,39.4,32.0,30.53,SSW,204,1.0,5.0,74,0.00,,,0.00,weatherlink.com 1.10,2013-01-08 23:08:00,
2013-01-08 18:22:00,39.2,32.0,30.53,SSE,165,2.0,4.0,75,0.00,,,0.00,weatherlink.com 1.10,2013-01-08 23:22:00,
2013-01-08 18:38:00,38.4,31.0,30.53,South,170,2.0,5.0,76,0.00,,,0.00,weatherlink.com 1.10,2013-01-08 23:38:00,
2013-01-08 18:53:00,37.9,32.0,30.53,South,178,3.0,5.0,78,0.00,,,0.00,weatherlink.com 1.10,2013-01-08 23:53:00,
2013-01-08 19:08:00,38.1,32.0,30.54,ESE,123,1.0,5.0,79,0.00,,,0.00,weatherlink.com 1.10,2013-01-09 00:08:00,
2013-01-08 19:23:00,39.0,32.0,30.54,SSE,161,3.0,5.0,77,0.00,,,0.00,weatherlink.com 1.10,2013-01-09 00:23:00,
2013-01-08 19:38:00,38.8,32.0,30.54,SSE,167,2.0,5.0,77,0.00,,,0.00,weatherlink.com 1.10,2013-01-09 00:38:00,
2013-01-08 19:53:00,38.9,33.0,30.54,SSE,167,1.0,5.0,78,0.00,,,0.00,weatherlink.com 1.10,2013-01-09 00:53:00,
2013-01-08 20:08:00,38.6,32.0,30.54,SE,131,2.0,5.0,78,0.00,,,0.00,weatherlink.com 1.10,2013-01-09 01:08:00,
2013-01-08 20:23:00,38.4,32.0,30.55,SE,134,6.0,7.0,79,0.00,,,0.00,weatherlink.com 1.10,2013-01-09 01:23:00,
2013-01-08 20:53:00,38.2,32.0,30.54,SSE,161,2.0,7.0,79,0.00,,,0.00,weatherlink.com 1.10,2013-01-09 01:53:00,
2013-01-08 21:08:00,37.9,32.0,30.54,SSE,158,2.0,8.0,80,0.00,,,0.00,weatherlink.com 1.10,2013-01-09 02:08:00,
2013-01-08 21:23:00,38.0,32.0,30.53,South,179,3.0,8.0,80,0.00,,,0.00,weatherlink.com 1.10,2013-01-09 02:23:00,
2013-01-08 21:38:00,37.9,33.0,30.54,SSW,194,5.0,8.0,81,0.00,,,0.00,weatherlink.com 1.10,2013-01-09 02:38:00,
2013-01-08 21:53:00,38.1,33.0,30.54,SSW,199,5.0,7.0,82,0.00,,,0.00,weatherlink.com 1.10,2013-01-09 02:53:00,
2013-01-08 22:23:00,37.8,33.0,30.54,SSE,168,3.0,8.0,84,0.00,,,0.00,weatherlink.com 1.10,2013-01-09 03:23:00,
2013-01-08 22:38:00,38.3,33.0,30.56,South,172,4.0,8.0,82,0.00,,,0.00,weatherlink.com 1.10,2013-01-09 03:38:00,
2013-01-08 22:53:00,37.8,33.0,30.56,SE,128,4.0,7.0,84,0.00,,,0.00,weatherlink.com 1.10,2013-01-09 03:53:00,
2013-01-08 23:08:00,38.1,33.0,30.56,South,178,4.0,11.0,83,0.00,,,0.00,weatherlink.com 1.10,2013-01-09 04:08:00,
2013-01-08 23:23:00,37.5,34.0,30.55,South,169,4.0,8.0,86,0.00,,,0.00,weatherlink.com 1.10,2013-01-09 04:23:00,
2013-01-08 23:38:00,37.7,35.0,30.56,South,182,4.0,10.0,88,0.00,,,0.00,weatherlink.com 1.10,2013-01-09 04:38:00,
2013-01-08 23:53:00,38.3,35.0,30.55,South,173,3.0,7.0,89,0.00,,,0.00,weatherlink.com 1.10,2013-01-09 04:53:00,